WZZ979 EPKK-LHBP

Flight info

Callsign WZZ979
Flight time 0h 31m
Altitude 28000
Route BABKO DCT NIDOK/N0360F270 DCT EDEMU
Aircraft A20N/M-SDE1E2E3FGIJ1J4RWXY/LB1

Departure

Time 2026-04-30 21:01
Airport Kraków John Paul II International Airport (EPKK)

Arrival

Time 2026-04-30 21:32
Airport Budapest Liszt Ferenc International Airport (LHBP)
Time Latitude Longitude Altitude Speed Heading
2026-04-30 20:42 50.07449 19.80475 788 ft 0 kts 109°
2026-04-30 20:54 50.07453 19.80456 788 ft 1 kts 109°
2026-04-30 20:54 50.07455 19.80449 788 ft 0 kts 109°
2026-04-30 20:55 50.07459 19.80433 788 ft 1 kts 109°
2026-04-30 20:55 50.07461 19.80422 788 ft 1 kts 110°
2026-04-30 20:55 50.07465 19.80406 788 ft 2 kts 101°
2026-04-30 20:56 50.07460 19.80365 788 ft 0 kts 36°
2026-04-30 20:58 50.07478 19.80382 788 ft 6 kts 25°
2026-04-30 20:58 50.07530 19.80408 788 ft 10 kts 15°
2026-04-30 20:58 50.07614 19.80406 788 ft 14 kts 350°
2026-04-30 20:58 50.07725 19.80368 788 ft 18 kts 347°
2026-04-30 20:59 50.07929 19.80301 788 ft 16 kts 347°
2026-04-30 20:59 50.08008 19.80213 788 ft 14 kts 267°
2026-04-30 21:00 50.07890 19.79344 790 ft 100 kts 258°
2026-04-30 21:00 50.07471 19.76380 1353 ft 154 kts 257°
2026-04-30 21:01 50.06961 19.73063 2689 ft 161 kts 260°
2026-04-30 21:01 50.06722 19.71259 3125 ft 180 kts 261°
2026-04-30 21:01 50.06021 19.67030 4151 ft 228 kts 241°
2026-04-30 21:02 50.04860 19.65223 4868 ft 249 kts 209°
2026-04-30 21:02 50.03168 19.64511 5763 ft 261 kts 184°
2026-04-30 21:02 50.01300 19.64067 6460 ft 281 kts 193°
2026-04-30 21:02 49.99393 19.63255 7419 ft 287 kts 196°
2026-04-30 21:03 49.97457 19.62342 8392 ft 294 kts 196°
2026-04-30 21:03 49.95470 19.61419 9370 ft 301 kts 195°
2026-04-30 21:03 49.93436 19.60511 10349 ft 308 kts 194°
2026-04-30 21:03 49.91325 19.59599 10998 ft 326 kts 194°
2026-04-30 21:04 49.89053 19.58635 11378 ft 351 kts 194°
2026-04-30 21:04 49.86642 19.57620 11975 ft 364 kts 193°
2026-04-30 21:04 49.81667 19.55527 13721 ft 377 kts 193°
2026-04-30 21:05 49.79117 19.54455 14553 ft 382 kts 193°
2026-04-30 21:05 49.76528 19.53368 15316 ft 388 kts 193°
2026-04-30 21:05 49.73902 19.52268 16060 ft 394 kts 193°
2026-04-30 21:05 49.71233 19.51151 16793 ft 401 kts 193°
2026-04-30 21:06 49.68520 19.50017 17530 ft 407 kts 193°
2026-04-30 21:06 49.65771 19.48870 18325 ft 411 kts 193°
2026-04-30 21:06 49.62994 19.47702 18990 ft 418 kts 195°
2026-04-30 21:06 49.60261 19.46084 19604 ft 425 kts 204°
2026-04-30 21:07 49.57654 19.43862 20236 ft 431 kts 210°
2026-04-30 21:07 49.55048 19.41511 20799 ft 438 kts 209°
2026-04-30 21:07 49.52403 19.39139 21424 ft 442 kts 209°
2026-04-30 21:07 49.49723 19.36745 22032 ft 448 kts 208°
2026-04-30 21:08 49.47012 19.34333 22621 ft 453 kts 208°
2026-04-30 21:08 49.44260 19.31889 23195 ft 459 kts 208°
2026-04-30 21:08 49.41476 19.29422 23797 ft 464 kts 208°
2026-04-30 21:08 49.38701 19.26966 24295 ft 470 kts 208°
2026-04-30 21:09 49.35815 19.24415 24801 ft 474 kts 208°
2026-04-30 21:09 49.32980 19.21913 25282 ft 479 kts 208°
2026-04-30 21:09 49.30083 19.19358 25748 ft 483 kts 207°
2026-04-30 21:09 49.27152 19.16777 26213 ft 488 kts 207°
2026-04-30 21:10 49.24203 19.14184 26775 ft 490 kts 207°
2026-04-30 21:10 49.21238 19.11577 27230 ft 494 kts 207°
2026-04-30 21:10 49.18244 19.08957 27659 ft 498 kts 207°
2026-04-30 21:10 49.15225 19.06320 28044 ft 502 kts 207°
2026-04-30 21:11 49.12182 19.03661 28355 ft 506 kts 207°
2026-04-30 21:11 49.09124 19.00990 28411 ft 506 kts 207°
2026-04-30 21:11 49.03038 18.95687 28412 ft 500 kts 207°
2026-04-30 21:12 48.96848 18.90905 28340 ft 494 kts 194°
2026-04-30 21:12 48.93548 18.89728 27698 ft 482 kts 181°
2026-04-30 21:12 48.90228 18.89558 26491 ft 474 kts 169°
2026-04-30 21:13 48.86959 18.90153 25174 ft 473 kts 165°
2026-04-30 21:13 48.83704 18.90826 24265 ft 468 kts 168°
2026-04-30 21:13 48.80497 18.91313 23324 ft 460 kts 170°
2026-04-30 21:13 48.77330 18.91630 22310 ft 453 kts 172°
2026-04-30 21:14 48.74193 18.91840 21364 ft 449 kts 173°
2026-04-30 21:14 48.71089 18.91998 20789 ft 443 kts 174°
2026-04-30 21:14 48.68036 18.92135 20256 ft 435 kts 174°
2026-04-30 21:14 48.65040 18.92266 19730 ft 428 kts 174°
2026-04-30 21:15 48.62083 18.92397 19210 ft 421 kts 174°
2026-04-30 21:15 48.59175 18.92529 18702 ft 415 kts 175°
2026-04-30 21:15 48.56314 18.92658 18157 ft 408 kts 175°
2026-04-30 21:15 48.53505 18.92782 17668 ft 401 kts 175°
2026-04-30 21:16 48.50741 18.92908 17185 ft 394 kts 175°
2026-04-30 21:16 48.48019 18.93031 16701 ft 388 kts 175°
2026-04-30 21:16 48.45336 18.93152 16233 ft 383 kts 175°
2026-04-30 21:16 48.42693 18.93271 15767 ft 378 kts 175°
2026-04-30 21:17 48.40080 18.93388 15303 ft 373 kts 175°
2026-04-30 21:17 48.37499 18.93504 15000 ft 373 kts 174°
2026-04-30 21:17 48.34869 18.93627 14762 ft 379 kts 174°
2026-04-30 21:17 48.32242 18.93745 14515 ft 376 kts 175°
2026-04-30 21:18 48.29643 18.93861 14386 ft 372 kts 175°
2026-04-30 21:18 48.27047 18.93977 14351 ft 375 kts 175°
2026-04-30 21:18 48.24412 18.94097 13952 ft 381 kts 175°
2026-04-30 21:18 48.21757 18.94217 13385 ft 383 kts 175°
2026-04-30 21:19 48.19106 18.94335 12850 ft 378 kts 175°
2026-04-30 21:19 48.16498 18.94450 12343 ft 372 kts 175°
2026-04-30 21:19 48.13928 18.94564 11857 ft 366 kts 175°
2026-04-30 21:19 48.11410 18.94675 11374 ft 361 kts 175°
2026-04-30 21:20 48.08952 18.94784 10894 ft 356 kts 176°
2026-04-30 21:20 48.06486 18.94892 10678 ft 342 kts 176°
2026-04-30 21:20 48.04184 18.94991 10542 ft 328 kts 176°
2026-04-30 21:20 48.01952 18.95088 10425 ft 315 kts 175°
2026-04-30 21:21 47.99778 18.95184 10215 ft 304 kts 175°
2026-04-30 21:21 47.97676 18.95280 9870 ft 299 kts 176°
2026-04-30 21:21 47.93584 18.95465 9177 ft 290 kts 176°
2026-04-30 21:22 47.91595 18.95555 8708 ft 291 kts 176°
2026-04-30 21:22 47.85555 18.95824 7480 ft 286 kts 178°
2026-04-30 21:23 47.83578 18.95911 7121 ft 282 kts 178°
2026-04-30 21:23 47.81625 18.95996 6788 ft 279 kts 178°
2026-04-30 21:23 47.77804 18.96163 6121 ft 271 kts 178°
2026-04-30 21:24 47.75935 18.96243 5799 ft 267 kts 178°
2026-04-30 21:24 47.74094 18.96323 5480 ft 263 kts 178°
2026-04-30 21:24 47.72276 18.96402 5171 ft 259 kts 178°
2026-04-30 21:24 47.70483 18.96480 4853 ft 256 kts 177°
2026-04-30 21:25 47.66976 18.96630 4252 ft 248 kts 177°
2026-04-30 21:25 47.65262 18.96705 4036 ft 250 kts 177°
2026-04-30 21:25 47.63501 18.96782 3993 ft 249 kts 177°
2026-04-30 21:26 47.60308 18.97406 3919 ft 220 kts 149°
2026-04-30 21:26 47.59127 18.98893 3743 ft 226 kts 131°
2026-04-30 21:27 47.57107 19.02210 3591 ft 208 kts 130°
2026-04-30 21:27 47.56157 19.03782 3494 ft 200 kts 131°
2026-04-30 21:27 47.55226 19.05296 3479 ft 198 kts 131°
2026-04-30 21:28 47.53396 19.08267 3006 ft 190 kts 131°
2026-04-30 21:28 47.52537 19.09658 2747 ft 177 kts 131°
2026-04-30 21:28 47.51022 19.12114 2321 ft 147 kts 128°
2026-04-30 21:29 47.50377 19.13158 2124 ft 129 kts 127°
2026-04-30 21:29 47.48628 19.15996 1602 ft 124 kts 128°
2026-04-30 21:30 47.47460 19.17887 1256 ft 126 kts 129°
2026-04-30 21:31 47.45675 19.20775 736 ft 127 kts 132°
2026-04-30 21:31 47.44499 19.22669 479 ft 114 kts 131°
2026-04-30 21:32 47.43795 19.23823 490 ft 55 kts 128°
2026-04-30 21:32 47.43682 19.24168 487 ft 26 kts 102°
2026-04-30 21:32 47.43636 19.24423 480 ft 19 kts 112°
2026-04-30 21:32 47.43557 19.24601 477 ft 22 kts 129°
2026-04-30 21:33 47.43453 19.24765 482 ft 23 kts 130°
2026-04-30 21:33 47.43239 19.25122 483 ft 21 kts 123°
2026-04-30 21:33 47.43283 19.25307 485 ft 22 kts 44°
2026-04-30 21:34 47.43324 19.25454 480 ft 15 kts 126°
2026-04-30 21:34 47.43406 19.25713 480 ft 19 kts 44°
2026-04-30 21:34 47.43484 19.25838 480 ft 4 kts 92°
2026-04-30 21:35 47.43464 19.25868 477 ft 7 kts 133°
2026-04-30 21:35 47.43429 19.25856 482 ft 7 kts 225°
2026-04-30 21:35 47.43392 19.25805 477 ft 3 kts 222°
2026-04-30 21:35 47.43383 19.25793 473 ft 0 kts 222°